Weather History for KAWG - February, 2014

Change the Weather History Date:

Friday, February 28, 2014

  Actual Average Record
Temperature  
Mean Temperature 20 °F -  
Max Temperature 37 °F 37 °F 57 °F (2004)
Min Temperature 3 °F 23 °F -9 °F (2015)
Degree Days  
Heating Degree Days 45    
Moisture  
Dew Point 12 °F    
Average Humidity 67    
Maximum Humidity 93    
Minimum Humidity 45    
Precipitation  
Precipitation 0.00 in - - ()
Sea Level Pressure  
Sea Level Pressure 29.98 in    
Wind  
Wind Speed 12 mph (ESE)    
Max Wind Speed 25 mph    
Max Gust Speed 29 mph    
Visibility 10 miles    
Events Snow    
Averages and records for this station are not official NWS values.
T = Trace of Precipitation, MM = Missing Value Source: NWS Daily Summary

Daily Weather History Graph

Daily Weather History Graph

Search for Another Location

Airport or City:

Trip Planner

Search our weather history database for the weather conditions in past years. The results will help you decide how hot, cold, wet, or windy it might be!

Date:

Astronomy

Feb. 28, 2014 Rise Set
Actual Time 6:42 AM CST 5:56 PM CST
Civil Twilight 6:14 AM CST 6:24 PM CST
Nautical Twilight 5:42 AM CST 6:56 PM CST
Astronomical Twilight 5:11 AM CST 7:28 PM CST
Moon 5:57 AM CST (2/28) 5:33 PM CST (2/28)
Length of Visible Light 12h 09m
Length of Day
11h 13m
Waning Crescent, 1% of the Moon is Illuminated
Feb 28
Waning Crescent
Mar 1
New
Mar 8
First Quarter
Mar 16
Full
Mar 23
Last Quarter

Hourly Weather History & Observations

Time (CST) Temp. Windchill Dew Point Humidity Pressure Visibility Wind Dir Wind Speed Gust Speed Precip Events Conditions
12:15 AM 3.2 °F -11.3 °F -2.2 °F 78% 30.12 in 10.0 mi East 9.2 mph - N/A   Clear
12:35 AM 3.2 °F -11.3 °F -2.2 °F 78% 30.11 in 10.0 mi East 9.2 mph - N/A   Clear
12:55 AM 3.2 °F -11.3 °F -2.2 °F 78% 30.10 in 10.0 mi East 9.2 mph - N/A   Clear
1:15 AM 3.2 °F -12.2 °F -2.2 °F 78% 30.10 in 10.0 mi East 10.4 mph - N/A   Clear
1:35 AM 3.2 °F -10.3 °F -2.2 °F 78% 30.09 in 10.0 mi East 8.1 mph - N/A   Clear
1:55 AM 5.0 °F -8.1 °F -2.2 °F 72% 30.09 in 10.0 mi ESE 8.1 mph - N/A   Clear
2:15 AM 5.0 °F -9.1 °F -2.2 °F 72% 30.09 in 10.0 mi East 9.2 mph - N/A   Clear
2:30 AM 5.0 °F -10.8 °F -2.2 °F 72% 30.08 in 10.0 mi East 11.5 mph - N/A   Clear
2:55 AM 5.0 °F -10.0 °F -2.2 °F 72% 30.08 in 10.0 mi ESE 10.4 mph - N/A   Clear
3:15 AM 5.0 °F -10.0 °F -0.4 °F 78% 30.07 in 10.0 mi ESE 10.4 mph - N/A   Clear
3:35 AM 5.0 °F -10.0 °F -0.4 °F 78% 30.07 in 10.0 mi ESE 10.4 mph - N/A   Mostly Cloudy
3:55 AM 6.8 °F -8.6 °F -0.4 °F 72% 30.07 in 10.0 mi ESE 11.5 mph - N/A   Overcast
4:15 AM 6.8 °F -8.6 °F 1.4 °F 79% 30.06 in 10.0 mi SE 11.5 mph - N/A   Overcast
4:35 AM 8.6 °F -7.0 °F 1.4 °F 73% 30.05 in 10.0 mi ESE 12.7 mph - N/A   Overcast
4:55 AM 8.6 °F -8.3 °F 1.4 °F 73% 30.04 in 10.0 mi SE 15.0 mph - N/A   Overcast
5:15 AM 8.6 °F -7.0 °F 1.4 °F 73% 30.04 in 10.0 mi SE 12.7 mph - N/A   Overcast
5:35 AM 10.4 °F -6.0 °F 1.4 °F 67% 30.04 in 10.0 mi ESE 15.0 mph - N/A   Overcast
5:55 AM 10.4 °F -5.4 °F 3.2 °F 73% 30.04 in 10.0 mi ESE 13.8 mph - N/A   Overcast
6:15 AM 10.4 °F -6.6 °F 3.2 °F 73% 30.03 in 10.0 mi SE 16.1 mph - N/A   Overcast
6:35 AM 10.4 °F -4.1 °F 3.2 °F 73% 30.03 in 10.0 mi SE 11.5 mph 18.4 mph N/A   Scattered Clouds
6:55 AM 10.4 °F -4.1 °F 3.2 °F 73% 30.04 in 10.0 mi SE 11.5 mph - N/A   Clear
7:15 AM 10.4 °F -5.4 °F 3.2 °F 73% 30.03 in 10.0 mi SE 13.8 mph 20.7 mph N/A   Clear
7:35 AM 12.2 °F -2.5 °F 3.2 °F 67% 30.03 in 10.0 mi SE 12.7 mph 21.9 mph N/A   Clear
7:55 AM 12.2 °F -4.3 °F 5.0 °F 73% 30.02 in 10.0 mi SE 16.1 mph 21.9 mph N/A   Clear
8:15 AM 12.2 °F -4.8 °F 5.0 °F 73% 30.02 in 10.0 mi SE 17.3 mph - N/A   Clear
8:35 AM 14.0 °F -2.0 °F 5.0 °F 67% 30.01 in 10.0 mi SE 16.1 mph 21.9 mph N/A   Clear
8:55 AM 15.8 °F -0.6 °F 6.8 °F 68% 30.00 in 10.0 mi SSE 18.4 mph 27.6 mph N/A   Clear
9:15 AM 17.6 °F 1.3 °F 6.8 °F 63% 29.98 in 10.0 mi SSE 19.6 mph 27.6 mph N/A   Clear
9:35 AM 19.4 °F 1.8 °F 6.8 °F 58% 29.97 in 10.0 mi SSE 25.3 mph - N/A   Clear
9:55 AM 19.4 °F 2.8 °F 6.8 °F 58% 29.96 in 10.0 mi SSE 21.9 mph 28.8 mph N/A   Clear
10:15 AM 21.2 °F 5.2 °F 8.6 °F 58% 29.95 in 10.0 mi SSE 21.9 mph 27.6 mph N/A   Clear
10:35 AM 23.0 °F 8.0 °F 8.6 °F 54% 29.95 in 10.0 mi SSE 20.7 mph - N/A   Partly Cloudy
10:55 AM 23.0 °F 10.1 °F 8.6 °F 54% 29.97 in 10.0 mi SSE 15.0 mph 24.2 mph N/A   Partly Cloudy
11:15 AM 23.0 °F 10.6 °F 10.4 °F 59% 29.96 in 10.0 mi SSE 13.8 mph 24.2 mph N/A   Mostly Cloudy
11:35 AM 24.8 °F 11.1 °F 12.2 °F 59% 29.95 in 10.0 mi SSE 18.4 mph 24.2 mph N/A   Mostly Cloudy
11:55 AM 26.6 °F 14.3 °F 12.2 °F 55% 29.94 in 10.0 mi South 16.1 mph - N/A   Partly Cloudy
12:15 PM 28.4 °F 18.0 °F 14.0 °F 55% 29.94 in 10.0 mi South 12.7 mph 20.7 mph N/A   Clear
12:35 PM 28.4 °F 16.6 °F 14.0 °F 55% 29.93 in 10.0 mi SSE 16.1 mph 21.9 mph N/A   Clear
12:55 PM 30.2 °F 19.3 °F 14.0 °F 51% 29.93 in 10.0 mi SSE 15.0 mph - N/A   Clear
1:15 PM 32.0 °F 22.1 °F 15.8 °F 51% 29.92 in 10.0 mi SSE 13.8 mph 19.6 mph N/A   Clear
1:35 PM 32.0 °F 22.1 °F 15.8 °F 51% 29.91 in 10.0 mi SSE 13.8 mph - N/A   Clear
1:55 PM 33.8 °F 25.3 °F 15.8 °F 48% 29.90 in 10.0 mi South 11.5 mph 18.4 mph N/A   Clear
2:15 PM 33.8 °F 24.3 °F 15.8 °F 48% 29.90 in 10.0 mi South 13.8 mph - N/A   Clear
2:35 PM 35.6 °F 28.0 °F 17.6 °F 48% 29.89 in 10.0 mi South 10.4 mph - N/A   Clear
2:55 PM 35.6 °F 27.5 °F 17.6 °F 48% 29.89 in 10.0 mi SE 11.5 mph - N/A   Clear
3:15 PM 35.6 °F 27.5 °F 17.6 °F 48% 29.88 in 10.0 mi South 11.5 mph - N/A   Clear
3:35 PM 37.4 °F 28.5 °F 17.6 °F 45% 29.88 in 10.0 mi South 15.0 mph - N/A   Clear
3:55 PM 37.4 °F 30.8 °F 19.4 °F 48% 29.88 in 10.0 mi South 9.2 mph - N/A   Clear
4:15 PM 37.4 °F 29.3 °F 19.4 °F 48% 29.88 in 10.0 mi SSE 12.7 mph - N/A   Clear
4:35 PM 37.4 °F 29.3 °F 19.4 °F 48% 29.87 in 10.0 mi SSE 12.7 mph - N/A   Clear
4:55 PM 35.6 °F 28.6 °F 21.2 °F 56% 29.88 in 10.0 mi SE 9.2 mph - N/A   Clear
5:15 PM 35.6 °F 29.2 °F 23.0 °F 60% 29.88 in 10.0 mi SSE 8.1 mph - N/A   Clear
5:35 PM 35.6 °F 29.9 °F 23.0 °F 60% 29.89 in 10.0 mi SSE 6.9 mph - N/A   Clear
5:55 PM 35.6 °F - 23.0 °F 60% 29.90 in 10.0 mi Calm Calm - N/A   Mostly Cloudy
6:15 PM 33.8 °F 29.6 °F 26.6 °F 75% 29.91 in 10.0 mi North 4.6 mph - N/A   Overcast
6:35 PM 33.8 °F 29.6 °F 26.6 °F 75% 29.91 in 10.0 mi NE 4.6 mph - N/A   Overcast
6:55 PM 32.0 °F 26.4 °F 24.8 °F 75% 29.91 in 10.0 mi ENE 5.8 mph - N/A   Overcast
7:15 PM 33.8 °F 27.7 °F 24.8 °F 70% 29.91 in 10.0 mi NE 6.9 mph - N/A   Overcast
7:35 PM 32.0 °F 24.2 °F 24.8 °F 75% 29.92 in 10.0 mi NE 9.2 mph - N/A   Overcast
7:55 PM 32.0 °F 25.6 °F 24.8 °F 75% 29.92 in 10.0 mi NE 6.9 mph - N/A   Overcast
8:10 PM 32.0 °F 24.2 °F 24.8 °F 75% 29.92 in 10.0 mi NNE 9.2 mph - N/A   Overcast
8:35 PM 32.0 °F 24.2 °F 24.8 °F 75% 29.94 in 10.0 mi North 9.2 mph - N/A   Overcast
8:55 PM 32.0 °F 22.5 °F 23.0 °F 69% 29.95 in 10.0 mi NNE 12.7 mph - N/A   Overcast
9:15 PM 30.2 °F 20.2 °F 23.0 °F 75% 29.96 in 10.0 mi North 12.7 mph - N/A   Overcast
9:35 PM 30.2 °F 19.8 °F 23.0 °F 75% 29.97 in 10.0 mi North 13.8 mph - N/A   Overcast
9:55 PM 30.2 °F 18.1 °F 23.0 °F 75% 29.98 in 10.0 mi North 18.4 mph - N/A   Overcast
10:15 PM 30.2 °F 19.8 °F 21.2 °F 69% 29.98 in 10.0 mi North 13.8 mph - N/A   Overcast
10:35 PM 28.4 °F 15.4 °F 21.2 °F 74% 30.00 in 10.0 mi NNW 19.6 mph - N/A   Overcast
10:55 PM 26.6 °F 13.4 °F 21.2 °F 80% 30.01 in 10.0 mi NNW 18.4 mph - N/A   Overcast
11:15 PM 26.6 °F 13.8 °F 21.2 °F 80% 30.02 in 10.0 mi North 17.3 mph 24.2 mph N/A   Overcast
11:35 PM 26.6 °F 15.2 °F 21.2 °F 80% 30.02 in 9.0 mi North 13.8 mph 20.7 mph N/A   Mostly Cloudy
11:55 PM 24.8 °F 13.4 °F 23.0 °F 93% 30.04 in 0.2 mi NNW 12.7 mph - N/A Snow Light Snow